NORTHEAST SUFFOLK  -  Winter Weather Advisory Winter Weather Advisory        NORTHERN NASSAU  -  Winter Weather Advisory Winter Weather Advisory        NORTHWEST SUFFOLK  -  Winter Weather Advisory Winter Weather Advisory        SOUTHEAST SUFFOLK  -  Winter Weather Advisory Winter Weather Advisory        SOUTHERN NASSAU  -  Winter Weather Advisory Winter Weather Advisory        SOUTHWEST SUFFOLK  -  Winter Weather Advisory Winter Weather Advisory      

Active alerts

Northern Nassau
  Details for Northern Nassau Winter Weather Advisory
Southern Nassau
  Details for Southern Nassau Winter Weather Advisory
Northwest Suffolk
  Details for Northwest Suffolk Winter Weather Advisory
Southwest Suffolk
  Details for Southwest Suffolk Winter Weather Advisory
Northeast Suffolk
  Details for Northeast Suffolk Winter Weather Advisory
Southeast Suffolk
  Details for Southeast Suffolk Winter Weather Advisory


WXM80 ListenWXM80 Stop

You find our weather info also at:

UK Metoffice

WeatherCloud

Weather Underground

Northeastern Weather Network

AWEKAS

Citizen Weather Observer Program (CWOP)

HAMweather, WeatherForYou, PWS Weather


Weather Underground History page Text

Daily Summary for December 31, 2016 Units:  English    Metric   Both
« Previous Day
Next Day »
Daily Weekly Monthly Yearly Custom
  High: Low: Average:
Temperature: 44.9 °F 29.6 °F 38.3 °F
Dew Point: 35.8 °F 21.0 °F 26.6 °F
Humidity: 72 % 52 % 63 %
Wind Speed: 16.0 mph 0.0 mph 5.4 mph
Wind Gust: 29.0 mph - -
Wind:- - SW
Pressure: 30.14 in 29.86 in -
Precipitation: 0.00 in    
Historical Graphs
 
 
Tabular Data for December 31, 2016
Time Temperature Dew Point Pressure Wind Wind Speed Wind Gust Humidity Rainfall Rate (Hourly)
00:03 34.4 °F 23.8 °F 29.95 in WNW 7.8 mph 29.0 mph 65 % 0.00 in
00:08 34.4 °F 23.8 °F 29.95 in SW 6.6 mph 29.0 mph 65 % 0.00 in
00:13 34.3 °F 23.4 °F 29.95 in WNW 6.8 mph 29.0 mph 64 % 0.00 in
00:18 34.3 °F 23.4 °F 29.95 in West 7.4 mph 29.0 mph 64 % 0.00 in
00:23 34.2 °F 23.7 °F 29.95 in West 3.6 mph 29.0 mph 65 % 0.00 in
00:28 34.1 °F 23.6 °F 29.97 in West 5.3 mph 29.0 mph 65 % 0.00 in
00:33 34.1 °F 23.2 °F 29.97 in WSW 6.6 mph 29.0 mph 64 % 0.00 in
00:38 34.1 °F 22.8 °F 29.97 in WNW 6.5 mph 29.0 mph 63 % 0.00 in
00:43 34.1 °F 22.8 °F 29.96 in West 3.8 mph 29.0 mph 63 % 0.00 in
00:48 34.1 °F 23.2 °F 29.96 in WNW 7.2 mph 29.0 mph 64 % 0.00 in
00:53 34.1 °F 23.6 °F 29.97 in WNW 4.3 mph 29.0 mph 65 % 0.00 in
01:03 34.1 °F 22.8 °F 29.97 in NNW 5.6 mph 29.0 mph 63 % 0.00 in
01:09 34.0 °F 22.7 °F 29.97 in WSW 4.4 mph 29.0 mph 63 % 0.00 in
01:14 34.0 °F 23.1 °F 29.97 in West 3.5 mph 29.0 mph 64 % 0.00 in
01:19 33.9 °F 23.4 °F 29.97 in West 3.9 mph 29.0 mph 65 % 0.00 in
01:24 33.8 °F 23.3 °F 29.97 in WNW 1.7 mph 29.0 mph 65 % 0.00 in
01:29 33.7 °F 23.2 °F 29.97 in WNW 4.2 mph 29.0 mph 65 % 0.00 in
01:34 33.6 °F 22.7 °F 29.98 in WNW 3.9 mph 29.0 mph 64 % 0.00 in
01:39 33.5 °F 22.6 °F 29.98 in West 4.9 mph 29.0 mph 64 % 0.00 in
01:44 33.5 °F 22.2 °F 29.98 in WNW 5.0 mph 29.0 mph 63 % 0.00 in
01:49 33.5 °F 22.2 °F 29.98 in West 3.0 mph 9.0 mph 63 % 0.00 in
01:54 33.4 °F 22.2 °F 29.99 in West 6.0 mph 8.0 mph 63 % 0.00 in
01:59 33.4 °F 22.1 °F 29.99 in WSW 2.0 mph 29.0 mph 63 % 0.00 in
02:04 33.4 °F 22.5 °F 30.00 in West 6.0 mph 13.0 mph 64 % 0.00 in
02:09 33.5 °F 22.2 °F 30.00 in WSW 6.0 mph 12.0 mph 63 % 0.00 in
02:14 33.5 °F 22.2 °F 30.00 in WSW 3.0 mph 9.0 mph 63 % 0.00 in
02:19 33.5 °F 22.6 °F 30.00 in West 2.0 mph 12.0 mph 64 % 0.00 in
02:29 33.3 °F 22.4 °F 30.01 in SW 2.7 mph 29.0 mph 64 % 0.00 in
02:34 33.3 °F 22.4 °F 30.01 in SW 2.0 mph 5.0 mph 64 % 0.00 in
02:39 33.0 °F 22.2 °F 30.01 in WSW 2.0 mph 6.0 mph 64 % 0.00 in
02:44 32.9 °F 22.4 °F 30.01 in SW 3.0 mph 6.0 mph 65 % 0.00 in
02:49 32.6 °F 22.1 °F 30.02 in SW 1.0 mph 5.0 mph 65 % 0.00 in
02:54 32.4 °F 22.3 °F 30.02 in SW 2.0 mph 4.0 mph 66 % 0.00 in
02:59 32.1 °F 22.0 °F 30.02 in WSW 2.8 mph 29.0 mph 66 % 0.00 in
03:04 31.9 °F 22.2 °F 30.03 in SW 1.0 mph 5.0 mph 67 % 0.00 in
03:09 31.7 °F 22.0 °F 30.03 in WSW 3.0 mph 6.0 mph 67 % 0.00 in
03:14 31.5 °F 21.8 °F 30.03 in WSW 2.0 mph 5.0 mph 67 % 0.00 in
03:19 31.4 °F 21.7 °F 30.03 in WSW 1.0 mph 4.0 mph 67 % 0.00 in
03:24 31.2 °F 21.5 °F 30.03 in WSW 3.0 mph 6.0 mph 67 % 0.00 in
03:29 31.2 °F 21.5 °F 30.03 in WSW 3.1 mph 29.0 mph 67 % 0.00 in
03:34 31.2 °F 21.5 °F 30.03 in WSW 0.9 mph 29.0 mph 67 % 0.00 in
03:44 31.2 °F 21.5 °F 30.03 in WSW 4.4 mph 29.0 mph 67 % 0.00 in
03:49 31.2 °F 21.2 °F 30.04 in West 3.5 mph 29.0 mph 66 % 0.00 in
03:54 31.2 °F 21.2 °F 30.04 in SW 4.2 mph 29.0 mph 66 % 0.00 in
04:00 31.2 °F 21.2 °F 30.04 in SW 2.4 mph 29.0 mph 66 % 0.00 in
04:05 31.1 °F 21.4 °F 30.04 in SW 1.9 mph 29.0 mph 67 % 0.00 in
04:10 31.1 °F 21.4 °F 30.04 in SW 1.9 mph 29.0 mph 67 % 0.00 in
04:15 31.0 °F 21.3 °F 30.04 in WSW 1.8 mph 29.0 mph 67 % 0.00 in
04:20 30.9 °F 21.2 °F 30.05 in West 3.1 mph 29.0 mph 67 % 0.00 in
04:25 30.8 °F 21.1 °F 30.05 in WSW 3.1 mph 29.0 mph 67 % 0.00 in
04:30 30.8 °F 21.1 °F 30.05 in WSW 3.5 mph 29.0 mph 67 % 0.00 in
04:35 30.7 °F 21.0 °F 30.06 in WSW 4.7 mph 29.0 mph 67 % 0.00 in
04:40 30.7 °F 21.0 °F 30.05 in SSW 4.4 mph 29.0 mph 67 % 0.00 in
04:45 30.6 °F 21.3 °F 30.05 in SW 1.8 mph 29.0 mph 68 % 0.00 in
04:50 30.6 °F 21.3 °F 30.05 in SW 1.6 mph 29.0 mph 68 % 0.00 in
04:55 30.5 °F 21.2 °F 30.05 in SW 1.8 mph 29.0 mph 68 % 0.00 in
05:00 30.4 °F 21.1 °F 30.05 in SW 1.8 mph 29.0 mph 68 % 0.00 in
05:05 30.3 °F 21.0 °F 30.06 in WSW 1.2 mph 29.0 mph 68 % 0.00 in
05:10 30.2 °F 21.2 °F 30.06 in SW 2.4 mph 29.0 mph 69 % 0.00 in
05:15 30.2 °F 21.2 °F 30.06 in SW 0.7 mph 29.0 mph 69 % 0.00 in
05:21 30.1 °F 21.2 °F 30.07 in SW 1.1 mph 29.0 mph 69 % 0.00 in
05:26 29.9 °F 21.3 °F 30.07 in SW 0.6 mph 29.0 mph 70 % 0.00 in
05:31 29.9 °F 21.3 °F 30.07 in SW 2.6 mph 29.0 mph 70 % 0.00 in
05:36 29.8 °F 21.2 °F 30.08 in SW 2.5 mph 29.0 mph 70 % 0.00 in
05:41 29.7 °F 21.4 °F 30.08 in SW 2.2 mph 29.0 mph 71 % 0.00 in
05:46 29.7 °F 21.4 °F 30.08 in SSW 3.5 mph 29.0 mph 71 % 0.00 in
05:51 29.6 °F 21.7 °F 30.08 in SW 2.9 mph 29.0 mph 72 % 0.00 in
05:56 29.7 °F 21.8 °F 30.09 in SW 2.9 mph 29.0 mph 72 % 0.00 in
06:01 29.8 °F 21.9 °F 30.10 in SW 4.4 mph 29.0 mph 72 % 0.00 in
06:06 29.8 °F 21.9 °F 30.09 in WSW 2.0 mph 29.0 mph 72 % 0.00 in
06:11 29.9 °F 22.0 °F 30.10 in SSW 3.5 mph 29.0 mph 72 % 0.00 in
06:16 30.0 °F 21.7 °F 30.10 in SW 4.4 mph 29.0 mph 71 % 0.00 in
06:21 30.1 °F 21.8 °F 30.10 in WSW 2.3 mph 29.0 mph 71 % 0.00 in
06:26 30.2 °F 21.9 °F 30.09 in WSW 4.3 mph 29.0 mph 71 % 0.00 in
06:32 30.3 °F 22.0 °F 30.10 in SW 5.4 mph 29.0 mph 71 % 0.00 in
06:37 30.4 °F 22.1 °F 30.11 in SSW 4.2 mph 29.0 mph 71 % 0.00 in
06:42 30.5 °F 21.9 °F 30.11 in West 4.1 mph 29.0 mph 70 % 0.00 in
06:47 30.6 °F 22.0 °F 30.11 in SW 2.4 mph 29.0 mph 70 % 0.00 in
06:52 30.7 °F 22.1 °F 30.11 in SW 1.8 mph 29.0 mph 70 % 0.00 in
06:57 30.8 °F 22.2 °F 30.11 in SW 2.2 mph 29.0 mph 70 % 0.00 in
07:02 30.9 °F 22.3 °F 30.11 in SW 4.2 mph 29.0 mph 70 % 0.00 in
07:07 31.1 °F 22.1 °F 30.11 in SW 4.4 mph 29.0 mph 69 % 0.00 in
07:12 31.2 °F 22.2 °F 30.10 in SW 1.4 mph 29.0 mph 69 % 0.00 in
07:17 31.2 °F 22.2 °F 30.10 in South 3.3 mph 29.0 mph 69 % 0.00 in
07:22 31.3 °F 22.0 °F 30.11 in SSW 2.6 mph 29.0 mph 68 % 0.00 in
07:27 31.3 °F 22.0 °F 30.11 in SW 3.0 mph 29.0 mph 68 % 0.00 in
07:32 31.4 °F 22.1 °F 30.12 in WSW 2.3 mph 29.0 mph 68 % 0.00 in
07:37 31.4 °F 22.1 °F 30.12 in SW 1.4 mph 29.0 mph 68 % 0.00 in
07:42 31.3 °F 22.0 °F 30.12 in SSW 2.4 mph 29.0 mph 68 % 0.00 in
07:47 31.3 °F 22.0 °F 30.12 in SW 1.1 mph 29.0 mph 68 % 0.00 in
07:53 31.3 °F 22.0 °F 30.13 in WSW 4.1 mph 29.0 mph 68 % 0.00 in
07:58 31.3 °F 22.0 °F 30.13 in SSW 3.2 mph 29.0 mph 68 % 0.00 in
08:03 31.3 °F 22.0 °F 30.12 in SSW 2.2 mph 29.0 mph 68 % 0.00 in
08:08 31.4 °F 22.1 °F 30.12 in Calm   29.0 mph 68 % 0.00 in
08:13 31.4 °F 22.1 °F 30.12 in SW 0.6 mph 29.0 mph 68 % 0.00 in
08:18 31.4 °F 21.7 °F 30.12 in SSW 0.9 mph 29.0 mph 67 % 0.00 in
08:23 31.5 °F 22.1 °F 30.12 in SSW 1.4 mph 29.0 mph 68 % 0.00 in
08:28 31.7 °F 22.0 °F 30.12 in SSW 0.7 mph 29.0 mph 67 % 0.00 in
08:33 31.9 °F 22.2 °F 30.12 in SSW 2.3 mph 29.0 mph 67 % 0.00 in
08:38 32.1 °F 22.0 °F 30.12 in WSW 5.0 mph 29.0 mph 66 % 0.00 in
08:43 32.5 °F 22.0 °F 30.12 in SW 2.2 mph 29.0 mph 65 % 0.00 in
08:48 32.8 °F 22.3 °F 30.12 in SSW 2.6 mph 29.0 mph 65 % 0.00 in
08:53 33.1 °F 22.2 °F 30.12 in SW 2.4 mph 29.0 mph 64 % 0.00 in
08:58 33.3 °F 22.4 °F 30.12 in SW 3.2 mph 29.0 mph 64 % 0.00 in
09:03 33.6 °F 22.7 °F 30.13 in WSW 3.0 mph 29.0 mph 64 % 0.00 in
09:08 33.8 °F 22.5 °F 30.13 in WSW 3.0 mph 29.0 mph 63 % 0.00 in
09:13 34.1 °F 22.8 °F 30.14 in SW 4.6 mph 29.0 mph 63 % 0.00 in
09:19 34.3 °F 22.6 °F 30.14 in SSW 6.1 mph 29.0 mph 62 % 0.00 in
09:24 34.6 °F 22.5 °F 30.14 in SW 4.7 mph 29.0 mph 61 % 0.00 in
09:29 34.7 °F 22.2 °F 30.14 in SW 5.6 mph 29.0 mph 60 % 0.00 in
09:34 34.9 °F 22.4 °F 30.13 in SSW 1.3 mph 29.0 mph 60 % 0.00 in
09:39 35.0 °F 22.5 °F 30.13 in WSW 4.4 mph 29.0 mph 60 % 0.00 in
09:44 35.1 °F 22.6 °F 30.13 in SSW 3.0 mph 29.0 mph 60 % 0.00 in
09:49 35.4 °F 22.5 °F 30.13 in SW 6.0 mph 29.0 mph 59 % 0.00 in
09:54 35.6 °F 22.7 °F 30.12 in SSW 0.6 mph 29.0 mph 59 % 0.00 in
09:59 35.8 °F 22.9 °F 30.12 in SSW 6.0 mph 29.0 mph 59 % 0.00 in
10:04 36.0 °F 23.0 °F 30.13 in South 4.9 mph 29.0 mph 59 % 0.00 in
10:09 36.2 °F 22.8 °F 30.13 in SSW 2.7 mph 29.0 mph 58 % 0.00 in
10:14 36.3 °F 22.9 °F 30.13 in SSW 2.2 mph 29.0 mph 58 % 0.00 in
10:19 36.4 °F 23.0 °F 30.13 in SSW 3.8 mph 29.0 mph 58 % 0.00 in
10:25 36.6 °F 23.6 °F 30.13 in SW 1.4 mph 29.0 mph 59 % 0.00 in
10:30 36.8 °F 23.8 °F 30.12 in SSW 0.1 mph 29.0 mph 59 % 0.00 in
10:35 37.0 °F 24.0 °F 30.12 in SSW 3.5 mph 29.0 mph 59 % 0.00 in
10:40 37.4 °F 24.8 °F 30.12 in SW 3.6 mph 29.0 mph 60 % 0.00 in
10:45 37.8 °F 25.5 °F 30.11 in South 1.4 mph 29.0 mph 61 % 0.00 in
10:50 38.2 °F 25.5 °F 30.11 in SSW 2.9 mph 29.0 mph 60 % 0.00 in
10:55 38.6 °F 25.1 °F 30.11 in WSW 5.6 mph 29.0 mph 58 % 0.00 in
11:00 38.9 °F 25.4 °F 30.10 in SW 6.0 mph 29.0 mph 58 % 0.00 in
11:05 39.1 °F 25.6 °F 30.09 in South 6.7 mph 29.0 mph 58 % 0.00 in
11:10 39.4 °F 25.8 °F 30.09 in SSW 3.4 mph 29.0 mph 58 % 0.00 in
11:15 39.6 °F 26.0 °F 30.08 in SSW 5.6 mph 29.0 mph 58 % 0.00 in
11:20 39.8 °F 25.8 °F 30.08 in WSW 3.0 mph 29.0 mph 57 % 0.00 in
11:25 40.0 °F 26.0 °F 30.08 in SW 4.9 mph 29.0 mph 57 % 0.00 in
11:30 40.2 °F 24.9 °F 30.07 in SW 6.1 mph 29.0 mph 54 % 0.00 in
11:36 40.4 °F 25.1 °F 30.07 in SSW 5.4 mph 29.0 mph 54 % 0.00 in
11:41 40.5 °F 24.7 °F 30.07 in SSW 6.3 mph 29.0 mph 53 % 0.00 in
11:46 40.6 °F 24.8 °F 30.06 in SSW 5.4 mph 29.0 mph 53 % 0.00 in
11:51 40.8 °F 25.0 °F 30.06 in SSW 7.3 mph 29.0 mph 53 % 0.00 in
11:56 40.8 °F 25.0 °F 30.06 in SW 4.9 mph 29.0 mph 53 % 0.00 in
12:01 40.9 °F 25.1 °F 30.06 in South 5.7 mph 29.0 mph 53 % 0.00 in
12:06 40.9 °F 25.1 °F 30.06 in South 4.5 mph 29.0 mph 53 % 0.00 in
12:16 41.0 °F 25.6 °F 30.06 in South 6.2 mph 29.0 mph 54 % 0.00 in
12:21 41.0 °F 25.6 °F 30.05 in South 10.2 mph 29.0 mph 54 % 0.00 in
12:26 40.9 °F 25.1 °F 30.05 in SSW 6.1 mph 29.0 mph 53 % 0.00 in
12:31 40.9 °F 25.1 °F 30.05 in South 5.9 mph 29.0 mph 53 % 0.00 in
12:37 40.9 °F 25.1 °F 30.04 in South 8.9 mph 29.0 mph 53 % 0.00 in
12:42 41.1 °F 24.8 °F 30.04 in SSW 8.0 mph 29.0 mph 52 % 0.00 in
12:47 41.2 °F 24.9 °F 30.04 in SW 9.0 mph 29.0 mph 52 % 0.00 in
12:52 41.4 °F 25.5 °F 30.04 in SSW 4.8 mph 29.0 mph 53 % 0.00 in
12:57 41.8 °F 25.9 °F 30.04 in SSE 8.1 mph 29.0 mph 53 % 0.00 in
13:02 42.2 °F 26.3 °F 30.03 in SSW 11.4 mph 29.0 mph 53 % 0.00 in
13:07 42.4 °F 26.0 °F 30.03 in South 5.9 mph 29.0 mph 52 % 0.00 in
13:12 42.5 °F 26.6 °F 30.03 in WSW 3.7 mph 29.0 mph 53 % 0.00 in
13:17 42.5 °F 26.1 °F 30.02 in SSE 5.5 mph 29.0 mph 52 % 0.00 in
13:22 42.4 °F 26.5 °F 30.02 in South 7.2 mph 29.0 mph 53 % 0.00 in
13:27 42.4 °F 26.5 °F 30.02 in South 4.7 mph 29.0 mph 53 % 0.00 in
13:32 42.5 °F 27.0 °F 30.02 in SW 9.2 mph 29.0 mph 54 % 0.00 in
13:37 42.5 °F 26.6 °F 30.02 in SSW 6.1 mph 29.0 mph 53 % 0.00 in
13:43 42.4 °F 26.5 °F 30.01 in SW 7.0 mph 29.0 mph 53 % 0.00 in
13:48 42.2 °F 26.3 °F 30.01 in SSW 8.7 mph 29.0 mph 53 % 0.00 in
13:53 42.1 °F 26.6 °F 30.01 in South 7.8 mph 29.0 mph 54 % 0.00 in
13:58 42.0 °F 26.5 °F 30.01 in SSW 11.9 mph 29.0 mph 54 % 0.00 in
14:03 42.1 °F 27.1 °F 30.00 in SW 6.7 mph 29.0 mph 55 % 0.00 in
14:08 42.2 °F 27.2 °F 30.00 in SSW 6.7 mph 29.0 mph 55 % 0.00 in
14:13 42.5 °F 27.5 °F 30.00 in South 3.5 mph 29.0 mph 55 % 0.00 in
14:18 42.7 °F 27.6 °F 29.99 in SW 7.3 mph 29.0 mph 55 % 0.00 in
14:23 42.8 °F 27.7 °F 29.99 in SSE 6.4 mph 29.0 mph 55 % 0.00 in
14:28 42.9 °F 26.9 °F 29.99 in SW 7.0 mph 29.0 mph 53 % 0.00 in
14:33 42.9 °F 26.9 °F 29.99 in South 7.2 mph 29.0 mph 53 % 0.00 in
14:38 42.9 °F 26.9 °F 29.98 in South 7.3 mph 29.0 mph 53 % 0.00 in
14:43 43.0 °F 27.0 °F 29.98 in South 5.0 mph 29.0 mph 53 % 0.00 in
14:48 43.1 °F 27.1 °F 29.98 in SSW 13.8 mph 29.0 mph 53 % 0.00 in
14:53 43.3 °F 27.3 °F 29.98 in SSE 9.9 mph 29.0 mph 53 % 0.00 in
14:59 43.4 °F 27.8 °F 29.97 in South 11.7 mph 29.0 mph 54 % 0.00 in
15:04 43.5 °F 27.9 °F 29.97 in South 11.8 mph 29.0 mph 54 % 0.00 in
15:09 43.5 °F 28.8 °F 29.96 in South 10.6 mph 29.0 mph 56 % 0.00 in
15:14 43.4 °F 29.6 °F 29.96 in SSW 8.7 mph 29.0 mph 58 % 0.00 in
15:19 43.3 °F 29.9 °F 29.96 in SW 9.1 mph 29.0 mph 59 % 0.00 in
15:24 43.2 °F 30.2 °F 29.96 in SSE 9.6 mph 29.0 mph 60 % 0.00 in
15:29 43.0 °F 30.9 °F 29.96 in SW 10.2 mph 29.0 mph 62 % 0.00 in
15:34 42.9 °F 31.2 °F 29.96 in SSW 6.6 mph 29.0 mph 63 % 0.00 in
15:39 42.9 °F 31.5 °F 29.96 in SSW 9.0 mph 20.0 mph 64 % 0.00 in
15:44 42.8 °F 31.5 °F 29.96 in SSW 7.0 mph 14.0 mph 64 % 0.00 in
15:49 42.8 °F 31.8 °F 29.96 in SSW 7.0 mph 17.0 mph 65 % 0.00 in
15:54 42.7 °F 32.1 °F 29.96 in South 6.0 mph 16.0 mph 66 % 0.00 in
15:59 42.8 °F 32.2 °F 29.96 in SSW 8.4 mph 29.0 mph 66 % 0.00 in
16:04 42.9 °F 32.7 °F 29.96 in SSW 6.1 mph 29.0 mph 67 % 0.00 in
16:09 42.9 °F 33.1 °F 29.95 in SSW 6.0 mph 24.0 mph 68 % 0.00 in
16:14 43.0 °F 33.2 °F 29.94 in SW 8.6 mph 29.0 mph 68 % 0.00 in
16:19 43.1 °F 33.3 °F 29.94 in SSW 8.7 mph 29.0 mph 68 % 0.00 in
16:24 43.2 °F 33.3 °F 29.93 in South 9.7 mph 29.0 mph 68 % 0.00 in
16:30 43.3 °F 33.8 °F 29.94 in SSW 10.5 mph 29.0 mph 69 % 0.00 in
16:35 43.3 °F 34.2 °F 29.93 in SSW 6.2 mph 29.0 mph 70 % 0.00 in
16:40 43.4 °F 34.3 °F 29.93 in SSW 8.4 mph 29.0 mph 70 % 0.00 in
16:45 43.4 °F 34.3 °F 29.94 in SSW 7.1 mph 29.0 mph 70 % 0.00 in
16:50 43.5 °F 34.4 °F 29.94 in SSE 9.4 mph 29.0 mph 70 % 0.00 in
16:55 43.6 °F 34.8 °F 29.94 in SE 6.5 mph 29.0 mph 71 % 0.00 in
17:00 43.6 °F 34.5 °F 29.94 in South 13.9 mph 29.0 mph 70 % 0.00 in
17:10 43.7 °F 34.9 °F 29.93 in SSE 5.3 mph 29.0 mph 71 % 0.00 in
17:15 43.6 °F 34.8 °F 29.93 in SSW 10.9 mph 29.0 mph 71 % 0.00 in
17:20 43.8 °F 35.4 °F 29.93 in SSW 10.7 mph 29.0 mph 72 % 0.00 in
17:25 43.8 °F 35.4 °F 29.93 in South 9.4 mph 29.0 mph 72 % 0.00 in
17:30 43.9 °F 35.5 °F 29.92 in SSW 10.5 mph 29.0 mph 72 % 0.00 in
17:35 44.0 °F 35.6 °F 29.92 in SSW 11.7 mph 29.0 mph 72 % 0.00 in
17:40 44.1 °F 35.6 °F 29.91 in SSW 11.3 mph 29.0 mph 72 % 0.00 in
17:45 44.2 °F 35.7 °F 29.91 in South 7.9 mph 29.0 mph 72 % 0.00 in
17:50 44.2 °F 35.7 °F 29.91 in SSW 11.1 mph 29.0 mph 72 % 0.00 in
17:55 44.2 °F 35.7 °F 29.90 in SSW 10.3 mph 29.0 mph 72 % 0.00 in
18:00 44.2 °F 35.7 °F 29.90 in SSW 12.2 mph 29.0 mph 72 % 0.00 in
18:06 44.2 °F 35.7 °F 29.92 in SSW 8.8 mph 29.0 mph 72 % 0.00 in
18:11 44.2 °F 35.7 °F 29.92 in SW 9.6 mph 29.0 mph 72 % 0.00 in
18:16 44.3 °F 35.8 °F 29.91 in SSW 8.8 mph 29.0 mph 72 % 0.00 in
18:21 44.3 °F 35.8 °F 29.90 in South 16.0 mph 29.0 mph 72 % 0.00 in
18:26 44.3 °F 35.8 °F 29.92 in SSW 10.4 mph 29.0 mph 72 % 0.00 in
18:31 44.3 °F 35.1 °F 29.90 in SSW 6.9 mph 29.0 mph 70 % 0.00 in
18:36 44.3 °F 35.1 °F 29.89 in WSW 7.6 mph 29.0 mph 70 % 0.00 in
18:41 44.3 °F 35.1 °F 29.88 in SSW 8.6 mph 29.0 mph 70 % 0.00 in
18:46 44.3 °F 35.1 °F 29.88 in South 6.6 mph 29.0 mph 70 % 0.00 in
18:51 44.3 °F 35.1 °F 29.86 in South 10.6 mph 29.0 mph 70 % 0.00 in
18:56 44.3 °F 35.5 °F 29.87 in SSW 6.1 mph 29.0 mph 71 % 0.00 in
19:02 44.4 °F 35.2 °F 29.89 in South 8.9 mph 29.0 mph 70 % 0.00 in
19:07 44.5 °F 35.3 °F 29.92 in SW 12.7 mph 29.0 mph 70 % 0.00 in
19:12 44.6 °F 35.4 °F 29.91 in SSW 7.2 mph 29.0 mph 70 % 0.00 in
19:17 44.7 °F 35.1 °F 29.90 in SSW 15.0 mph 29.0 mph 69 % 0.00 in
19:22 44.8 °F 34.9 °F 29.90 in SSW 8.1 mph 29.0 mph 68 % 0.00 in
19:27 44.9 °F 34.2 °F 29.91 in SSW 10.0 mph 29.0 mph 66 % 0.00 in
19:32 44.9 °F 34.2 °F 29.91 in SSW 9.4 mph 29.0 mph 66 % 0.00 in
19:37 44.9 °F 33.5 °F 29.92 in WSW 11.7 mph 29.0 mph 64 % 0.00 in
19:42 44.9 °F 33.1 °F 29.92 in SW 9.8 mph 29.0 mph 63 % 0.00 in
19:47 44.9 °F 33.1 °F 29.92 in SW 11.2 mph 29.0 mph 63 % 0.00 in
19:52 44.9 °F 33.1 °F 29.91 in SW 9.6 mph 29.0 mph 63 % 0.00 in
19:57 44.9 °F 32.7 °F 29.92 in SSW 8.5 mph 29.0 mph 62 % 0.00 in
20:02 44.8 °F 32.2 °F 29.91 in SSW 6.7 mph 29.0 mph 61 % 0.00 in
20:07 44.7 °F 31.7 °F 29.91 in West 7.9 mph 29.0 mph 60 % 0.00 in
20:12 44.7 °F 31.7 °F 29.91 in South 6.7 mph 29.0 mph 60 % 0.00 in
20:17 44.6 °F 30.7 °F 29.91 in SW 8.6 mph 29.0 mph 58 % 0.00 in
20:23 44.5 °F 30.6 °F 29.90 in SSW 9.0 mph 29.0 mph 58 % 0.00 in
20:28 44.4 °F 30.1 °F 29.91 in West 7.7 mph 29.0 mph 57 % 0.00 in
20:33 44.4 °F 30.5 °F 29.90 in SW 9.3 mph 29.0 mph 58 % 0.00 in
20:38 44.3 °F 30.4 °F 29.90 in SW 5.1 mph 29.0 mph 58 % 0.00 in
20:43 44.2 °F 29.9 °F 29.90 in SW 7.2 mph 29.0 mph 57 % 0.00 in
20:48 44.1 °F 29.8 °F 29.89 in SW 8.6 mph 29.0 mph 57 % 0.00 in
20:53 44.0 °F 29.7 °F 29.90 in South 4.2 mph 29.0 mph 57 % 0.00 in
20:58 43.9 °F 29.6 °F 29.89 in SSE 5.1 mph 29.0 mph 57 % 0.00 in
21:08 43.8 °F 29.5 °F 29.89 in SW 2.1 mph 29.0 mph 57 % 0.00 in
21:13 43.7 °F 29.9 °F 29.89 in South 4.9 mph 29.0 mph 58 % 0.00 in
21:18 43.7 °F 29.9 °F 29.89 in South 3.0 mph 29.0 mph 58 % 0.00 in
21:23 43.6 °F 29.8 °F 29.88 in SW 6.8 mph 29.0 mph 58 % 0.00 in
21:28 43.5 °F 29.7 °F 29.88 in SW 2.7 mph 29.0 mph 58 % 0.00 in
21:33 43.5 °F 29.7 °F 29.88 in SW 6.2 mph 29.0 mph 58 % 0.00 in
21:38 43.5 °F 29.7 °F 29.88 in SW 3.6 mph 29.0 mph 58 % 0.00 in
21:43 43.4 °F 30.0 °F 29.87 in SSW 5.2 mph 29.0 mph 59 % 0.00 in
21:48 43.5 °F 30.1 °F 29.88 in SW 3.7 mph 29.0 mph 59 % 0.00 in
21:53 43.4 °F 29.6 °F 29.88 in SW 8.7 mph 29.0 mph 58 % 0.00 in
21:59 43.5 °F 30.1 °F 29.89 in SW 5.1 mph 29.0 mph 59 % 0.00 in
22:04 43.5 °F 30.1 °F 29.89 in SSW 4.4 mph 29.0 mph 59 % 0.00 in
22:09 43.5 °F 30.1 °F 29.88 in South 3.1 mph 29.0 mph 59 % 0.00 in
22:14 43.5 °F 29.7 °F 29.88 in SW 3.4 mph 29.0 mph 58 % 0.00 in
22:19 43.5 °F 29.7 °F 29.88 in SW 3.3 mph 29.0 mph 58 % 0.00 in
22:24 43.5 °F 29.7 °F 29.88 in SSW 3.0 mph 29.0 mph 58 % 0.00 in
22:29 43.6 °F 29.8 °F 29.89 in South 6.7 mph 29.0 mph 58 % 0.00 in
22:34 43.6 °F 29.8 °F 29.89 in SSW 4.0 mph 29.0 mph 58 % 0.00 in
22:39 43.6 °F 30.2 °F 29.88 in SW 4.3 mph 29.0 mph 59 % 0.00 in
22:44 43.6 °F 30.2 °F 29.88 in SW 3.1 mph 29.0 mph 59 % 0.00 in
22:49 43.5 °F 30.5 °F 29.88 in SSW 4.4 mph 29.0 mph 60 % 0.00 in
22:59 43.5 °F 30.5 °F 29.87 in South 5.2 mph 29.0 mph 60 % 0.00 in
23:04 43.4 °F 30.4 °F 29.87 in WSW 3.8 mph 29.0 mph 60 % 0.00 in
23:09 43.4 °F 30.8 °F 29.88 in SSW 6.3 mph 29.0 mph 61 % 0.00 in
23:14 43.4 °F 30.4 °F 29.87 in SSW 3.9 mph 29.0 mph 60 % 0.00 in
23:19 43.4 °F 30.4 °F 29.87 in SW 5.4 mph 29.0 mph 60 % 0.00 in
23:25 43.4 °F 30.4 °F 29.87 in South 4.7 mph 29.0 mph 60 % 0.00 in
23:30 43.5 °F 30.1 °F 29.86 in SSW 6.0 mph 29.0 mph 59 % 0.00 in
23:35 43.5 °F 30.1 °F 29.86 in South 1.8 mph 29.0 mph 59 % 0.00 in
23:40 43.5 °F 30.1 °F 29.86 in SSW 3.6 mph 29.0 mph 59 % 0.00 in
23:45 43.5 °F 30.1 °F 29.86 in SW 6.0 mph 29.0 mph 59 % 0.00 in
23:50 43.6 °F 30.2 °F 29.86 in SW 4.1 mph 29.0 mph 59 % 0.00 in
23:55 43.6 °F 30.2 °F 29.86 in SW 5.3 mph 29.0 mph 59 % 0.00 in
Crab Meadow Weather
Compliments of Weather Underground - 3 mb

Script developed by  Jim McMurry - jmcmurry@mwt.net Adapted for the template by  Wim van der Kuil - Leuven-Template.eu

Weather Terms: Flood Stage - The level or stage at which a stream overflows its banks or the stage at which the overflow of a stream begins to cause damage.